FW9558 Weather Reports


Display with metric or nautical units.
time (UTC)temp
F
wind
direction
speed
MPH
gust
MPH
rain 1hr
in
rain 24hr
in
rain mn
in
humidity
%
barometer
mb
20260504210039 57 263 2.0 7.0 0.00 0.77 0.61 90 1012.7
20260504204545 57 269 2.0 4.0 0.00 0.77 0.61 89 1012.6
20260504203046 57 303 1.0 6.0 0.00 0.77 0.61 90 1012.5
20260504201537 57 272 1.0 4.0 0.00 0.77 0.61 90 1012.4
20260504200036 57 284 1.0 4.0 0.00 0.77 0.61 90 1012.1
20260504194536 57 0 0.0 0.0 0.00 0.77 0.61 90 1012.2
20260504193040 57 0 0.0 0.0 0.00 0.77 0.61 89 1012.0
20260504191539 57 0 0.0 0.0 0.00 0.77 0.61 89 1012.0
20260504190044 58 0 0.0 3.0 0.00 0.77 0.61 89 1011.9
20260504184533 58 0 0.0 2.0 0.00 0.77 0.61 88 1011.8
20260504183035 58 0 0.0 2.0 0.00 0.77 0.61 88 1011.7
20260504181544 58 51 1.0 5.0 0.00 0.77 0.61 87 1011.6
20260504180039 58 32 0.0 3.0 0.00 0.77 0.61 88 1011.8
20260504174538 58 0 1.0 4.0 0.00 0.77 0.61 87 1011.6
20260504173036 58 0 0.0 3.0 0.00 0.77 0.61 86 1011.9
20260504171537 58 0 0.0 4.0 0.00 0.77 0.61 86 1011.8
20260504081541 55 0 0.0 2.0 0.06 0.37 0.11 94 1012.6
20260504044543 55 0 0.0 1.0 0.00 0.31 0.04 95 1011.7
20260504043036 55 0 0.0 2.0 0.00 0.31 0.04 95 1011.8
20260504041540 55 0 0.0 0.0 0.00 0.31 0.04 95 1011.8
20260504040058 56 0 0.0 0.0 0.00 0.31 0.04 95 1011.9
20260504034553 56 0 0.0 0.0 0.00 0.31 0.04 95 1012.0
20260504033034 56 0 0.0 0.0 0.00 0.31 0.04 95 1012.1
20260504031536 56 0 0.0 0.0 0.00 0.31 0.04 95 1012.0
20260504030058 55 0 0.0 0.0 0.00 0.31 0.04 95 1012.0
20260504024535 55 0 0.0 0.0 0.00 0.33 0.04 95 1012.1
20260504023039 56 0 0.0 0.0 0.00 0.33 0.04 95 1012.1
20260504021538 55 0 0.0 0.0 0.00 0.33 0.04 95 1012.1
20260504020036 56 0 0.0 0.0 0.00 0.33 0.04 94 1012.1
20260504014536 56 0 0.0 0.0 0.00 0.51 0.04 94 1012.1
20260504013049 56 0 0.0 0.0 0.00 0.51 0.04 94 1012.2
20260504011541 56 0 0.0 0.0 0.00 0.51 0.04 94 1012.5
20260504010040 56 0 0.0 0.0 0.00 0.51 0.04 94 1012.4
20260504004539 56 0 0.0 0.0 0.00 0.51 0.04 94 1012.5
20260504003036 57 0 0.0 0.0 0.00 0.51 0.04 94 1012.5
20260504001536 57 0 0.0 1.0 0.00 0.51 0.04 94 1012.5
20260504000036 56 0 0.0 0.0 0.00 0.51 0.04 93 1012.8
20260503234535 57 0 0.0 0.0 0.00 0.53 0.04 93 1012.9
20260503233040 57 0 0.0 0.0 0.00 0.53 0.04 93 1012.9
20260503231536 57 0 0.0 0.0 0.03 0.53 0.04 93 1013.0
20260503230037 57 0 0.0 0.0 0.03 0.53 0.04 92 1012.9
20260503224533 57 0 0.0 0.0 0.09 0.55 0.04 92 1012.9
20260503223041 57 0 0.0 0.0 0.19 0.54 0.03 91 1013.1
20260503221543 57 0 0.0 0.0 0.16 0.51 0.00 90 1013.2
20260503220040 58 0 0.0 2.0 0.15 0.50 0.00 89 1013.0
20260503214539 59 0 0.0 0.0 0.11 0.46 0.45 87 1013.1
20260503213041 59 0 0.0 3.0 0.00 0.35 0.34 85 1013.0
20260503211537 59 0 1.0 4.0 0.00 0.35 0.34 84 1012.9